Content
SEND FEEDBACK

United States of America Flag

TAMUNING, GUAM


Home > North America > United States > Guam
Elevation: 250 feet     Latitude: 13 29N     Longitude: 144 47E

WEATHER
 
SELECT A DAY
Number of Records: 393,941;   Date Range: 1/1/95 - 3/22/16
 
SHARE

PRINT THIS DATA

[ ← Previous Day ]
WEATHER ALMANAC - MARCH 7, 2014
[ Next Day → ]
[ °C ]   °F
Weather ElementAverageHighLow
Temperature75.6 °F77.7 °F (9:58 am)72.9 °F (4:58 pm)
Dewpoint71.2 °F73.4 °F (12:33 am)65.3 °F (9:58 am)
Humidity86.6 %94 % (12:33 am)65 % (9:58 am)
Barometer29.86 in29.92 in (10:04 am)29.81 in (12:58 am)
Wind Speed13 mph20.7 mph (1:34 pm)
Wind Gust25.3 mph (11:45 am)
Weather ElementAverage
Visibility9.5 mi
Wind DirectionNE (42.3 °)

Weather ElementTotal
Precipitation0.09 in
Cooling Degree Days10.3 (Base 65)
Growing Degree Days25.3 (Base 50)
Averaged from 92 records on March 7, 2014
WEATHER CONDITIONS BREAKOUT
WIND DIRECTION BREAKOUT
WEATHER BY HOUR - MARCH 7, 2014
[ °C ]   °F
Local TimeTemperatureDewpointHumidityBarometerVisibilityWind DirectionWind SpeedGust SpeedPrecipitationEventsConditions
12:33 AM75.2 °F73.4 °F94 %29.85 in7.0 miNorth (10°)11.5 mphRainLight Rain
12:38 AM75.2 °F73.4 °F94 %29.85 in10.0 miNE (40°)13.8 mphRainLight Rain
12:43 AM75.2 °F71.6 °F89 %29.84 in10.0 miNE (40°)12.7 mphRainLight Rain
12:44 AM75.2 °F71.6 °F89 %29.84 in10.0 miNE (40°)13.8 mphMostly Cloudy
12:58 AM75.7 °F72.9 °F91 %29.81 in10.0 miNNE (20°)13.8 mph0.00 inOvercast
1:03 AM75.2 °F73.4 °F94 %29.84 in10.0 miNNE (20°)12.7 mphMostly Cloudy
1:43 AM75.2 °F71.6 °F89 %29.84 in10.0 miNNE (30°)12.7 mphOvercast
1:48 AM75.2 °F71.6 °F89 %29.84 in10.0 miNNE (30°)15.0 mph19.6 mphOvercast
1:53 AM75.2 °F71.6 °F89 %29.84 in10.0 miNNE (30°)10.4 mph19.6 mphMostly Cloudy
1:58 AM75.7 °F72.3 °F89 %29.81 in10.0 miNNE (20°)10.4 mph19.6 mphOvercast
2:08 AM75.2 °F71.6 °F89 %29.84 in10.0 miNNE (20°)11.5 mphMostly Cloudy
2:58 AM75.7 °F71.6 °F87 %29.81 in10.0 miNNE (30°)12.7 mphOvercast
3:58 AM75.7 °F72.1 °F89 %29.83 in10.0 miNNE (20°)12.7 mphMostly Cloudy
4:48 AM75.2 °F71.6 °F89 %29.83 in10.0 miNNE (30°)10.4 mphMostly Cloudy
4:58 AM75.9 °F71.8 °F87 %29.81 in10.0 miNNE (20°)12.7 mphOvercast
5:13 AM77.0 °F71.6 °F83 %29.83 in10.0 miNNE (20°)12.7 mphOvercast
5:18 AM75.2 °F71.6 °F89 %29.83 in10.0 miNNE (20°)12.7 mphOvercast
5:43 AM75.2 °F71.6 °F89 %29.84 in10.0 miNE (40°)10.4 mphOvercast
5:53 AM75.2 °F71.6 °F89 %29.84 in10.0 miNNE (20°)11.5 mphOvercast
5:58 AM75.9 °F71.2 °F85 %29.82 in10.0 miNE (40°)12.7 mphOvercast
6:03 AM75.2 °F71.6 °F89 %29.85 in10.0 miNNE (30°)10.4 mphMostly Cloudy
6:08 AM75.2 °F71.6 °F89 %29.85 in10.0 miNE (40°)12.7 mphMostly Cloudy
6:28 AM77.0 °F71.6 °F83 %29.86 in10.0 miNNE (30°)13.8 mphMostly Cloudy
6:38 AM75.2 °F71.6 °F89 %29.86 in10.0 miNNE (30°)11.5 mphMostly Cloudy
6:58 AM75.6 °F71.4 °F87 %29.84 in10.0 miNNE (30°)10.4 mphMostly Cloudy
7:28 AM77.0 °F71.6 °F83 %29.88 in10.0 miENE (60°)9.2 mphMostly Cloudy
7:33 AM75.2 °F73.4 °F94 %29.88 in10.0 miENE (70°)11.5 mphMostly Cloudy
7:43 AM75.2 °F73.4 °F94 %29.88 in10.0 miENE (60°)13.8 mphMostly Cloudy
7:53 AM75.2 °F71.6 °F89 %29.89 in10.0 miNE (40°)15.0 mphMostly Cloudy
7:58 AM75.9 °F71.6 °F86 %29.86 in10.0 miNE (50°)10.4 mphMostly Cloudy
8:03 AM75.2 °F69.8 °F83 %29.89 in10.0 miNE (40°)10.4 mphScattered Clouds
8:58 AM77.2 °F71.8 °F83 %29.88 in10.0 miNE (50°)10.4 mphScattered Clouds
9:58 AM77.7 °F65.3 °F65 %29.88 in10.0 miNNW (330°)5.8 mphScattered Clouds
10:04 AM77.0 °F68.0 °F74 %29.92 in8.0 miNE (50°)16.1 mphRainLight Rain
10:09 AM75.2 °F71.6 °F89 %29.92 in2.5 miNE (50°)11.5 mphRainHeavy Rain
10:14 AM73.4 °F71.6 °F94 %29.92 in2.0 miNE (40°)11.5 mphRainHeavy Rain
10:19 AM73.4 °F71.6 °F94 %29.92 in3.0 miNE (40°)10.4 mphRainHeavy Rain
10:34 AM73.4 °F69.8 °F88 %29.91 in8.0 miNNE (20°)8.1 mphRainLight Rain
10:55 AM77.0 °F73.4 °F89 %29.91 in10.0 miNorth (10°)4.6 mphScattered Clouds
10:58 AM76.5 °F72.9 °F89 %29.88 in10.0 miVariable5.8 mph0.06 inScattered Clouds
11:05 AM77.0 °F73.4 °F89 %29.91 in10.0 miNNE (30°)12.7 mphRainLight Rain
11:10 AM77.0 °F73.4 °F89 %29.91 in10.0 miNNE (30°)12.7 mph18.4 mphRainLight Rain
11:18 AM77.0 °F73.4 °F89 %29.90 in10.0 miNNE (30°)13.8 mphMostly Cloudy
11:23 AM77.0 °F71.6 °F83 %29.90 in10.0 miNNE (20°)11.5 mphMostly Cloudy
11:27 AM77.0 °F71.6 °F83 %29.90 in10.0 miNNE (30°)11.5 mphLight Drizzle
11:37 AM77.0 °F71.6 °F83 %29.89 in10.0 miNNE (20°)16.1 mph21.9 mphMostly Cloudy
11:45 AM75.2 °F73.4 °F94 %29.89 in10.0 miNNE (30°)18.4 mph25.3 mphLight Drizzle
11:55 AM75.2 °F73.4 °F94 %29.89 in10.0 miNNE (30°)13.8 mphRainLight Rain
11:58 AM75.7 °F72.9 °F91 %29.86 in10.0 miNE (40°)16.1 mph0.00 inRainLight Rain
11:59 AM77.0 °F73.4 °F89 %29.89 in10.0 miNE (40°)15.0 mphMostly Cloudy
12:29 PM77.0 °F71.6 °F83 %29.88 in10.0 miNNE (30°)13.8 mphLight Drizzle
12:37 PM77.0 °F71.6 °F83 %29.88 in10.0 miNNE (30°)13.8 mphMostly Cloudy
12:42 PM77.0 °F71.6 °F83 %29.87 in10.0 miNNE (30°)13.8 mphMostly Cloudy
12:58 PM76.6 °F71.1 °F83 %29.84 in10.0 miNE (40°)18.4 mph24.2 mph0.00 inMostly Cloudy
1:24 PM77.0 °F71.6 °F83 %29.87 in10.0 miNE (40°)19.6 mph23.0 mphRainLight Rain
1:29 PM75.2 °F71.6 °F89 %29.87 in10.0 miNNE (30°)18.4 mphRainLight Rain
1:34 PM75.2 °F71.6 °F89 %29.87 in10.0 miNE (40°)20.7 mphRainLight Rain
1:35 PM75.2 °F71.6 °F89 %29.87 in10.0 miNE (40°)20.7 mphMostly Cloudy
1:45 PM75.2 °F71.6 °F89 %29.87 in10.0 miNE (50°)16.1 mphOvercast
1:50 PM75.2 °F71.6 °F89 %29.87 in10.0 miNE (50°)16.1 mphMostly Cloudy
1:58 PM75.4 °F70.9 °F86 %29.84 in10.0 miNE (40°)15.0 mph0.00 inMostly Cloudy
2:13 PM75.2 °F71.6 °F89 %29.86 in10.0 miNE (40°)15.0 mph21.9 mphMostly Cloudy
2:15 PM75.2 °F71.6 °F89 %29.86 in10.0 miNE (40°)13.8 mph21.9 mphLight Drizzle
2:20 PM75.2 °F69.8 °F83 %29.86 in10.0 miNNE (30°)13.8 mph21.9 mphLight Drizzle
2:42 PM75.2 °F69.8 °F83 %29.85 in10.0 miNNE (30°)6.9 mphMostly Cloudy
2:52 PM75.2 °F69.8 °F83 %29.85 in10.0 miNorth (10°)8.1 mphMostly Cloudy
2:58 PM76.1 °F70.0 °F81 %29.82 in10.0 miNNE (20°)6.9 mph0.00 inMostly Cloudy
3:58 PM75.6 °F71.4 °F87 %29.81 in10.0 miENE (60°)13.8 mphScattered Clouds
4:00 PM75.2 °F71.6 °F89 %29.84 in8.0 miENE (60°)15.0 mphLight Drizzle
4:05 PM73.4 °F71.6 °F94 %29.85 in6.0 miENE (60°)12.7 mphLight Drizzle
4:10 PM73.4 °F71.6 °F94 %29.84 in6.0 miENE (60°)16.1 mphLight Drizzle
4:15 PM73.4 °F71.6 °F94 %29.85 in7.0 miENE (60°)16.1 mphLight Drizzle
4:58 PM72.9 °F69.6 °F90 %29.82 in9.0 miENE (60°)9.2 mph0.03 inMostly Cloudy
5:08 PM73.4 °F71.6 °F94 %29.86 in10.0 miENE (70°)12.7 mphScattered Clouds
5:58 PM73.6 °F69.4 °F87 %29.83 in10.0 miENE (70°)13.8 mphScattered Clouds
6:22 PM73.4 °F69.8 °F88 %29.86 in10.0 miEast (80°)9.2 mphRainLight Rain
6:31 PM73.4 °F69.8 °F88 %29.86 in10.0 miENE (70°)6.9 mphScattered Clouds
6:56 PM75.2 °F71.6 °F89 %29.87 in10.0 miEast (80°)12.7 mphMostly Cloudy
6:59 PM74.7 °F71.6 °F90 %29.84 in10.0 miENE (60°)13.8 mph0.00 inMostly Cloudy
7:09 PM75.2 °F69.8 °F83 %29.87 in10.0 miNE (50°)16.1 mphOvercast
7:19 PM75.2 °F71.6 °F89 %29.88 in10.0 miNNE (30°)13.8 mphOvercast
7:29 PM75.2 °F69.8 °F83 %29.88 in10.0 miNNE (30°)10.4 mphMostly Cloudy
7:35 PM77.0 °F69.8 °F78 %29.88 in10.0 miNNE (30°)11.5 mphRainLight Rain
7:40 PM75.2 °F68.0 °F78 %29.89 in10.0 miNE (50°)15.0 mphRainLight Rain
7:44 PM75.2 °F68.0 °F78 %29.89 in10.0 miNE (50°)16.1 mphMostly Cloudy
7:58 PM76.1 °F68.5 °F77 %29.86 in10.0 miNE (50°)17.3 mph0.00 inScattered Clouds
8:58 PM76.1 °F69.4 °F80 %29.88 in10.0 miNE (50°)17.3 mphScattered Clouds
9:58 PM76.5 °F69.1 °F78 %29.89 in10.0 miNE (50°)15.0 mphScattered Clouds
10:58 PM76.6 °F69.6 °F79 %29.88 in10.0 miNE (50°)16.1 mphMostly Cloudy
11:43 PM77.0 °F69.8 °F78 %29.91 in10.0 miNE (50°)16.1 mphMostly Cloudy
11:53 PM77.0 °F68.0 °F74 %29.91 in10.0 miNE (50°)16.1 mphScattered Clouds
11:58 PM76.5 °F68.0 °F75 %29.87 in10.0 miENE (60°)13.8 mphScattered Clouds
Hourly data recorded from PGUA, located miles away from Tamuning, Guam




STORIES FROM OUR PARTNERS